Location: *
(45.1333°S, 169.6333°W)
Time: 19:51:25
(UTC+00:00)

CORIOLIS - Pass Details

Date: 26 May 2022
Orbit: 817 x 839 km, 98.7° (Epoch: 01 July)

Event Time Altitude Azimuth Distance (km) Brightness Sun altitude
Exits shadow 05:19:00 - 156° (SSE) 2,707 6.5 -15.4°
Reaches altitude 10° 05:19:36 10° 154° (SSE) 2,484 6.3 -15.5°
Maximum altitude 05:24:53 46° 81° (E) 1,135 4.5 -16.4°
Drops below altitude 10° 05:30:07 10° 8° (N) 2,460 6.7 -17.3°
Sets 05:32:34 0° 2° (N) 3,387 7.5 -17.7°
